Content
SEND FEEDBACK

Daily
Averages
Monthly
Summary
United States of America

LOS LUNAS, NEW MEXICO


Home > North America > United States > New Mexico
Elevation: 4800 feet     Latitude: 34 48N     Longitude: 106 44W

WEATHER
 
SELECT A DAY
Number of Records: 98,662;   Date Range: 5/3/10 - 8/20/14
 
SHARE

PRINT THIS DATA

[ ← Previous Day ]
WEATHER ALMANAC - JANUARY 31, 2013
[ Next Day → ]
[ °C ]   °F
Weather ElementAverageHighLow
Temperature36.1 °F52.5 °F (2:55 pm)19.4 °F (7:15 am)
Dewpoint18.6 °F22.1 °F (9:35 am)14.2 °F (7:15 am)
Humidity52.5 %80 % (5:15 am)28 % (4:35 pm)
Barometer30.25 in30.32 in (9:35 am)30.20 in (12:35 am)
Wind Speed4.3 mph10.4 mph (1:15 am)
Weather ElementAverage
Visibility10 mi
Wind DirectionESE (114.6 °)

Weather ElementTotal
Precipitation---
Heating Degree Days29.1 (Base 65)
Averaged from 71 records on January 31, 2013
WEATHER CONDITIONS BREAKOUT
WIND DIRECTION BREAKOUT
WEATHER BY HOUR - JANUARY 31, 2013
[ °C ]   °F
Local TimeTemperatureDewpointHumidityBarometerVisibilityWind DirectionWind SpeedGust SpeedPrecipitationEventsConditions
12:35 AM27.0 °F16.7 °F65 %30.20 in10.0 miWNW (300°)6.9 mphClear
12:55 AM25.9 °F15.8 °F66 %30.20 in10.0 miWNW (300°)9.2 mphClear
1:15 AM28.0 °F17.4 °F64 %30.20 in10.0 miWNW (300°)10.4 mphClear
1:35 AM27.5 °F17.6 °F66 %30.20 in10.0 miWNW (290°)8.1 mphClear
1:55 AM28.9 °F18.3 °F65 %30.20 in10.0 miWest (270°)6.9 mphClear
2:15 AM27.1 °F17.6 °F67 %30.20 in10.0 miWest (280°)5.8 mphClear
2:35 AM26.4 °F17.1 °F68 %30.21 in10.0 miEast (90°)3.5 mphClear
2:55 AM28.8 °F17.6 °F63 %30.22 in10.0 miNE (40°)3.5 mphClear
3:15 AM26.8 °F17.6 °F68 %30.23 in10.0 miCalmClear
3:35 AM24.1 °F15.6 °F70 %30.23 in10.0 miCalmClear
3:55 AM22.8 °F15.6 °F74 %30.23 in10.0 miCalmClear
4:15 AM21.2 °F14.9 °F77 %30.23 in10.0 miCalmClear
4:35 AM23.4 °F16.2 °F74 %30.23 in10.0 miCalmClear
4:55 AM22.1 °F15.8 °F77 %30.23 in10.0 miCalmClear
5:15 AM20.5 °F15.1 °F80 %30.23 in10.0 miNNE (20°)3.5 mphClear
5:35 AM21.4 °F14.7 °F75 %30.24 in10.0 miNE (50°)3.5 mphClear
5:55 AM22.6 °F15.8 °F75 %30.24 in10.0 miNE (40°)3.5 mphClear
6:15 AM21.7 °F16.2 °F79 %30.25 in10.0 miENE (60°)3.5 mphClear
6:35 AM21.9 °F15.3 °F76 %30.26 in10.0 miCalmClear
6:55 AM21.9 °F16.0 °F78 %30.27 in10.0 miCalmClear
7:15 AM19.4 °F14.2 °F80 %30.27 in10.0 miCalmClear
7:35 AM21.2 °F14.5 °F75 %30.29 in10.0 miCalmClear
7:55 AM23.0 °F16.5 °F76 %30.29 in10.0 miCalmClear
8:15 AM29.3 °F19.2 °F66 %30.29 in10.0 miENE (70°)3.5 mphClear
8:35 AM32.4 °F20.8 °F63 %30.31 in10.0 miNE (50°)4.6 mphClear
8:55 AM34.9 °F21.6 °F58 %30.31 in10.0 miNE (40°)3.5 mphClear
9:15 AM36.5 °F21.7 °F55 %30.31 in10.0 miENE (70°)5.8 mphClear
9:35 AM37.4 °F22.1 °F54 %30.32 in10.0 miNE (40°)8.1 mphClear
9:55 AM38.7 °F22.1 °F51 %30.31 in10.0 miNNE (20°)5.8 mphClear
10:15 AM39.9 °F21.9 °F49 %30.31 in10.0 miNE (40°)4.6 mphClear
10:35 AM41.0 °F21.9 °F47 %30.30 in10.0 miNorth (10°)5.8 mphClear
10:55 AM43.5 °F21.7 °F42 %30.29 in10.0 miNorth (350°)8.1 mphClear
11:15 AM45.3 °F21.4 °F39 %30.29 in10.0 miNorth (360°)9.2 mphClear
11:35 AM45.3 °F21.6 °F39 %30.28 in10.0 miNE (50°)5.8 mphClear
11:55 AM46.2 °F21.9 °F38 %30.27 in10.0 miNorth (350°)6.9 mphClear
12:15 PM47.1 °F21.7 °F37 %30.26 in10.0 miNE (40°)4.6 mphClear
12:35 PM47.3 °F21.6 °F36 %30.25 in10.0 miNorth (10°)6.9 mphClear
12:55 PM48.4 °F21.2 °F34 %30.23 in10.0 miNE (40°)4.6 mphClear
1:15 PM48.0 °F21.0 °F34 %30.24 in10.0 miCalmClear
1:35 PM48.7 °F21.0 °F34 %30.23 in10.0 miEast (90°)3.5 mphClear
1:55 PM49.1 °F20.7 °F33 %30.25 in10.0 miCalmClear
2:15 PM50.5 °F20.7 °F31 %30.25 in10.0 miSE (140°)3.5 mphClear
2:35 PM50.5 °F20.5 °F31 %30.25 in10.0 miCalmClear
2:55 PM52.5 °F20.7 °F29 %30.25 in10.0 miENE (70°)4.6 mphClear
3:15 PM51.1 °F20.3 °F30 %30.25 in10.0 miCalmClear
3:35 PM51.6 °F20.1 °F29 %30.25 in10.0 miCalmClear
3:55 PM51.3 °F19.6 °F29 %30.23 in10.0 miNorth (360°)4.6 mphClear
4:15 PM52.0 °F20.1 °F29 %30.23 in10.0 miENE (60°)6.9 mphClear
4:35 PM51.6 °F19.4 °F28 %30.23 in10.0 miNE (50°)6.9 mphClear
4:55 PM51.3 °F19.4 °F29 %30.23 in10.0 miNE (50°)6.9 mphClear
5:15 PM49.5 °F19.4 °F31 %30.23 in10.0 miENE (60°)4.6 mphClear
5:35 PM46.9 °F18.7 °F33 %30.23 in10.0 miEast (80°)3.5 mphClear
5:55 PM46.6 °F18.5 °F33 %30.23 in10.0 miENE (60°)4.6 mphClear
6:15 PM45.1 °F18.1 °F34 %30.23 in10.0 miCalmClear
6:35 PM40.5 °F16.9 °F39 %30.25 in10.0 miCalmClear
6:55 PM41.9 °F18.0 °F38 %30.25 in10.0 miCalmClear
7:15 PM38.7 °F18.0 °F43 %30.25 in10.0 miCalmClear
7:35 PM36.0 °F16.3 °F45 %30.24 in10.0 miNNE (20°)3.5 mphClear
7:55 PM33.6 °F16.0 °F48 %30.24 in10.0 miNNE (30°)5.8 mphClear
8:15 PM38.8 °F18.0 °F43 %30.25 in10.0 miNNE (20°)5.8 mphClear
8:35 PM35.2 °F17.6 °F49 %30.25 in10.0 miNNE (20°)6.9 mphClear
8:55 PM38.7 °F18.3 °F44 %30.26 in10.0 miNorth (360°)5.8 mphClear
9:15 PM36.7 °F19.2 °F49 %30.27 in10.0 miNorth (350°)8.1 mphClear
9:35 PM37.2 °F19.9 °F50 %30.27 in10.0 miNorth (350°)8.1 mphClear
9:55 PM34.9 °F19.2 °F53 %30.27 in10.0 miNNW (340°)6.9 mphClear
10:15 PM33.8 °F19.4 °F56 %30.27 in10.0 miNNW (330°)8.1 mphClear
10:35 PM32.0 °F19.0 °F59 %30.28 in10.0 miNNW (330°)8.1 mphClear
10:55 PM30.2 °F18.0 °F60 %30.29 in10.0 miNNW (330°)6.9 mphClear
11:15 PM30.2 °F17.8 °F60 %30.28 in10.0 miNorth (350°)5.8 mphClear
11:35 PM30.2 °F18.3 °F61 %30.27 in10.0 miNorth (350°)8.1 mphClear
11:55 PM28.6 °F17.8 °F64 %30.26 in10.0 miNorth (360°)9.2 mphClear
Hourly data recorded from KE80, located miles away from Los Lunas, New Mexico







STORIES FROM OUR PARTNERS